Location: Mococo
(38.0255°N, 122.1161°W)
Time: 03:13:06
(UTC+00:00)

COSMO-SKYMED 1 - Pass Details

Date: 13 February 2026
Orbit: 576 x 579 km, 97.9° (Epoch: 13 March)

Event Time Altitude Azimuth Distance (km) Brightness Sun altitude
Rises 14:16:22 0° 185° (S) 2,782 6.0 -9.3°
Reaches altitude 10° 14:18:38 10° 194° (SSW) 1,888 5.0 -8.9°
Maximum altitude 14:22:26 36° 262° (W) 925 3.0 -8.1°
Drops below altitude 10° 14:26:14 10° 330° (NNW) 1,901 4.7 -7.4°
Sets 14:28:32 0° 339° (NNW) 2,804 5.6 -7.0°
